Volver al catálogo

FREGAT DEB

LostHEO
NORAD 45903·DEBRIS·🇷🇺 Russia

Lanzado Jul 18, 2011 desde Baikonur Cosmodrome

Loading…

Próximos Pases (próximas 24 horas)

TLE

ObsoletoSource: Space-Track

Época: Aug 22, 2020, 13:01 UTC

1 45903U 11037DY  20235.54245008 -.00034020  00000-0 -38789-1 0  9990
2 45903  51.4269 268.2385 2737494 115.6547 275.1106  9.25519004  4088

Sigue FREGAT DEB en tiempo real con AllMySat

Download on the App Store